N8767 ZBAA-ZSSS

Flight info

Callsign N8767
Flight time 1h 28m
Altitude 38100
Route ELKUR2G ELKUR W40 DOXAB/K0832S1190 W40 YQG/K0839S1160 W142 DALIM/K0839S1190 A593 DPX A470 DALNU W166 ZJ W167 SASAN R343 PK
Aircraft B737/M-SDE2E3FGHIRWXY/LB1

Departure

Time 2026-05-04 07:33
Airport Beijing Capital International Airport (ZBAA)

Arrival

Time 2026-05-04 09:01
Airport Shanghai Hongqiao International Airport (ZSSS)
Time Latitude Longitude Altitude Speed Heading
2026-05-04 07:03 40.05261 116.59326 123 ft 0 kts 263°
2026-05-04 07:05 40.05262 116.59332 123 ft 0 kts 263°
2026-05-04 07:06 40.05261 116.59326 118 ft 0 kts 263°
2026-05-04 07:16 40.05262 116.59330 123 ft 3 kts 263°
2026-05-04 07:16 40.05266 116.59358 121 ft 4 kts 241°
2026-05-04 07:16 40.05284 116.59379 118 ft 4 kts 188°
2026-05-04 07:16 40.05298 116.59379 121 ft 0 kts 173°
2026-05-04 07:20 40.05295 116.59380 121 ft 1 kts 173°
2026-05-04 07:22 40.05309 116.59624 121 ft 9 kts 344°
2026-05-04 07:22 40.05336 116.59617 123 ft 9 kts 349°
2026-05-04 07:23 40.05399 116.59607 120 ft 9 kts 353°
2026-05-04 07:23 40.05462 116.59598 121 ft 9 kts 353°
2026-05-04 07:23 40.05531 116.59587 120 ft 11 kts 353°
2026-05-04 07:23 40.05612 116.59574 119 ft 13 kts 353°
2026-05-04 07:24 40.05708 116.59559 121 ft 15 kts 353°
2026-05-04 07:24 40.05819 116.59542 121 ft 17 kts 353°
2026-05-04 07:24 40.05946 116.59522 121 ft 19 kts 353°
2026-05-04 07:24 40.06008 116.59512 123 ft 19 kts 353°
2026-05-04 07:25 40.06117 116.59453 122 ft 19 kts 309°
2026-05-04 07:26 40.06925 116.59229 123 ft 20 kts 359°
2026-05-04 07:27 40.07064 116.59208 123 ft 20 kts 353°
2026-05-04 07:27 40.07209 116.59186 119 ft 21 kts 353°
2026-05-04 07:27 40.07355 116.59163 122 ft 20 kts 353°
2026-05-04 07:27 40.07457 116.59196 123 ft 15 kts 81°
2026-05-04 07:28 40.07478 116.59326 122 ft 15 kts 82°
2026-05-04 07:28 40.07527 116.59416 123 ft 14 kts 353°
2026-05-04 07:28 40.07630 116.59398 120 ft 16 kts 353°
2026-05-04 07:28 40.07751 116.59379 122 ft 19 kts 353°
2026-05-04 07:29 40.07890 116.59357 123 ft 22 kts 353°
2026-05-04 07:29 40.08049 116.59333 123 ft 24 kts 353°
2026-05-04 07:29 40.08220 116.59306 124 ft 25 kts 353°
2026-05-04 07:29 40.08372 116.59281 122 ft 19 kts 355°
2026-05-04 07:30 40.08503 116.59261 122 ft 19 kts 353°
2026-05-04 07:30 40.08581 116.59296 123 ft 12 kts 84°
2026-05-04 07:30 40.08589 116.59411 123 ft 14 kts 83°
2026-05-04 07:30 40.08589 116.59531 122 ft 13 kts 125°
2026-05-04 07:31 40.08529 116.59549 121 ft 0 kts 172°
2026-05-04 07:33 40.07804 116.59662 120 ft 132 kts 174°
2026-05-04 07:33 40.06780 116.59834 758 ft 147 kts 173°
2026-05-04 07:33 40.05822 116.59992 1955 ft 137 kts 178°
2026-05-04 07:33 40.04858 116.60090 2914 ft 141 kts 178°
2026-05-04 07:34 40.03880 116.60250 3898 ft 146 kts 177°
2026-05-04 07:34 40.02769 116.60426 4427 ft 182 kts 176°
2026-05-04 07:34 40.01365 116.60646 4756 ft 222 kts 175°
2026-05-04 07:34 39.99735 116.60901 5237 ft 245 kts 176°
2026-05-04 07:35 39.97965 116.61182 5821 ft 268 kts 176°
2026-05-04 07:35 39.96052 116.61487 6653 ft 282 kts 176°
2026-05-04 07:35 39.94090 116.61797 7740 ft 286 kts 176°
2026-05-04 07:35 39.92084 116.62113 8724 ft 295 kts 176°
2026-05-04 07:36 39.90022 116.62435 9757 ft 301 kts 176°
2026-05-04 07:36 39.87909 116.62764 10588 ft 314 kts 176°
2026-05-04 07:38 39.70010 116.65507 15810 ft 391 kts 174°
2026-05-04 07:38 39.67275 116.65923 16348 ft 394 kts 174°
2026-05-04 07:38 39.64561 116.66390 16596 ft 395 kts 171°
2026-05-04 07:38 39.61868 116.67080 16593 ft 394 kts 168°
2026-05-04 07:39 39.59189 116.67833 16605 ft 395 kts 168°
2026-05-04 07:39 39.56493 116.68570 16644 ft 398 kts 169°
2026-05-04 07:39 39.53772 116.69472 17086 ft 410 kts 158°
2026-05-04 07:39 39.51238 116.71130 17591 ft 407 kts 150°
2026-05-04 07:40 39.48728 116.72780 17587 ft 408 kts 159°
2026-05-04 07:40 39.46023 116.73778 17595 ft 403 kts 171°
2026-05-04 07:40 39.43256 116.74243 17608 ft 400 kts 174°
2026-05-04 07:40 39.40479 116.74660 17788 ft 406 kts 174°
2026-05-04 07:41 39.37654 116.75085 18529 ft 409 kts 174°
2026-05-04 07:41 39.34841 116.75516 19522 ft 406 kts 173°
2026-05-04 07:41 39.32034 116.75955 20346 ft 408 kts 173°
2026-05-04 07:41 39.29203 116.76404 21070 ft 413 kts 173°
2026-05-04 07:42 39.26328 116.76865 21712 ft 419 kts 173°
2026-05-04 07:42 39.23409 116.77337 22361 ft 425 kts 173°
2026-05-04 07:42 39.20452 116.77816 22924 ft 432 kts 173°
2026-05-04 07:42 39.17453 116.78302 23589 ft 436 kts 173°
2026-05-04 07:43 39.14432 116.78792 24155 ft 439 kts 173°
2026-05-04 07:43 39.11385 116.79286 24684 ft 443 kts 173°
2026-05-04 07:43 39.08309 116.79783 25205 ft 447 kts 173°
2026-05-04 07:43 39.05209 116.80284 25758 ft 450 kts 173°
2026-05-04 07:44 39.02088 116.80788 26281 ft 454 kts 173°
2026-05-04 07:44 38.98943 116.81295 26765 ft 458 kts 173°
2026-05-04 07:44 38.95764 116.81807 27239 ft 462 kts 173°
2026-05-04 07:44 38.92605 116.82315 27694 ft 466 kts 173°
2026-05-04 07:45 38.89369 116.82835 28143 ft 469 kts 173°
2026-05-04 07:45 38.86106 116.83359 28563 ft 473 kts 173°
2026-05-04 07:45 38.82831 116.83885 28988 ft 477 kts 173°
2026-05-04 07:45 38.79531 116.84414 29396 ft 480 kts 173°
2026-05-04 07:46 38.76205 116.84947 29768 ft 483 kts 173°
2026-05-04 07:46 38.72853 116.85483 30109 ft 487 kts 174°
2026-05-04 07:46 38.69490 116.86021 30404 ft 489 kts 174°
2026-05-04 07:46 38.66096 116.86563 30728 ft 491 kts 174°
2026-05-04 07:47 38.62706 116.87104 31149 ft 490 kts 174°
2026-05-04 07:47 38.59326 116.87643 31629 ft 488 kts 174°
2026-05-04 07:47 38.55963 116.88180 32066 ft 487 kts 174°
2026-05-04 07:49 38.32510 116.91901 34536 ft 485 kts 175°
2026-05-04 07:49 38.29155 116.92431 34825 ft 485 kts 175°
2026-05-04 07:49 38.25806 116.92961 35131 ft 485 kts 175°
2026-05-04 07:50 38.22462 116.93488 35409 ft 484 kts 175°
2026-05-04 07:50 38.19110 116.94017 35689 ft 485 kts 175°
2026-05-04 07:50 38.15759 116.94545 35977 ft 484 kts 176°
2026-05-04 07:50 38.12415 116.95071 36276 ft 483 kts 176°
2026-05-04 07:51 38.09082 116.95595 36601 ft 482 kts 176°
2026-05-04 07:51 38.05755 116.96118 36867 ft 482 kts 176°
2026-05-04 07:51 38.02419 116.96641 37058 ft 483 kts 176°
2026-05-04 07:51 37.99071 116.97165 37033 ft 485 kts 176°
2026-05-04 07:52 37.92392 116.98212 37044 ft 482 kts 176°
2026-05-04 07:52 37.85794 116.99244 37047 ft 480 kts 176°
2026-05-04 07:54 37.59412 117.03347 37053 ft 477 kts 176°
2026-05-04 07:55 37.52812 117.04369 37054 ft 478 kts 176°
2026-05-04 07:55 37.46191 117.05393 37059 ft 479 kts 176°
2026-05-04 07:56 37.39555 117.06417 37058 ft 480 kts 177°
2026-05-04 07:56 37.32959 117.07433 37060 ft 481 kts 177°
2026-05-04 07:57 37.26315 117.08456 37056 ft 481 kts 177°
2026-05-04 07:57 37.19675 117.09475 37058 ft 481 kts 177°
2026-05-04 07:58 37.13033 117.10493 37059 ft 480 kts 177°
2026-05-04 07:58 37.06402 117.11508 37059 ft 479 kts 177°
2026-05-04 07:59 36.99773 117.12521 37058 ft 478 kts 177°
2026-05-04 07:59 36.93164 117.13528 37063 ft 477 kts 177°
2026-05-04 08:00 36.86615 117.14525 37064 ft 477 kts 177°
2026-05-04 08:02 36.60375 117.18501 37071 ft 473 kts 178°
2026-05-04 08:02 36.53832 117.19488 37078 ft 473 kts 178°
2026-05-04 08:03 36.47302 117.20472 37083 ft 472 kts 178°
2026-05-04 08:03 36.40804 117.21595 37075 ft 476 kts 171°
2026-05-04 08:04 36.34442 117.23908 37075 ft 479 kts 167°
2026-05-04 08:04 36.28477 117.26227 37082 ft 479 kts 167°
2026-05-04 08:05 36.22105 117.28644 37075 ft 478 kts 167°
2026-05-04 08:05 36.15770 117.30998 37079 ft 478 kts 168°
2026-05-04 08:06 36.09394 117.33358 37082 ft 478 kts 168°
2026-05-04 08:06 36.03024 117.35717 37082 ft 478 kts 168°
2026-05-04 08:08 35.78609 117.44842 37088 ft 478 kts 168°
2026-05-04 08:11 35.50002 117.55484 37086 ft 477 kts 168°
2026-05-04 08:11 35.40463 117.59015 37104 ft 477 kts 168°
2026-05-04 08:12 35.34106 117.61364 37106 ft 477 kts 168°
2026-05-04 08:12 35.27784 117.63695 37095 ft 477 kts 168°
2026-05-04 08:13 35.21430 117.66035 37100 ft 476 kts 168°
2026-05-04 08:13 35.15077 117.68371 37107 ft 476 kts 168°
2026-05-04 08:14 35.08735 117.70700 37101 ft 476 kts 168°
2026-05-04 08:16 34.83427 117.79914 37108 ft 474 kts 169°
2026-05-04 08:16 34.77096 117.82168 37101 ft 473 kts 169°
2026-05-04 08:17 34.70775 117.84438 37107 ft 473 kts 169°
2026-05-04 08:17 34.64459 117.86708 37104 ft 473 kts 169°
2026-05-04 08:19 34.39229 117.95730 37107 ft 473 kts 169°
2026-05-04 08:20 34.32911 117.97981 37108 ft 473 kts 169°
2026-05-04 08:20 34.26588 118.00233 37111 ft 474 kts 169°
2026-05-04 08:21 34.20306 118.02528 37107 ft 474 kts 169°
2026-05-04 08:21 34.13989 118.04853 37111 ft 474 kts 169°
2026-05-04 08:22 34.07665 118.07168 37106 ft 475 kts 169°
2026-05-04 08:24 33.82419 118.16494 37101 ft 479 kts 164°
2026-05-04 08:24 33.76554 118.20504 37124 ft 490 kts 151°
2026-05-04 08:25 33.70980 118.25249 37111 ft 491 kts 150°
2026-05-04 08:25 33.65396 118.29989 37108 ft 491 kts 151°
2026-05-04 08:27 33.42951 118.48551 37118 ft 491 kts 152°
2026-05-04 08:28 33.37313 118.53191 37116 ft 491 kts 152°
2026-05-04 08:28 33.31920 118.57624 37113 ft 492 kts 152°
2026-05-04 08:29 33.26459 118.62106 37114 ft 492 kts 152°
2026-05-04 08:31 33.03922 118.80751 37121 ft 493 kts 152°
2026-05-04 08:33 32.81370 118.99383 37124 ft 494 kts 153°
2026-05-04 08:35 32.58785 119.18110 37121 ft 494 kts 153°
2026-05-04 08:35 32.53177 119.22739 37127 ft 494 kts 153°
2026-05-04 08:37 32.33403 119.39005 37135 ft 494 kts 154°
2026-05-04 08:38 32.27756 119.43634 37137 ft 494 kts 154°
2026-05-04 08:38 32.23644 119.47000 37141 ft 494 kts 154°
2026-05-04 08:40 32.05788 119.61584 35832 ft 480 kts 155°
2026-05-04 08:40 32.03033 119.63821 35179 ft 482 kts 155°
2026-05-04 08:40 32.00260 119.66072 34537 ft 485 kts 155°
2026-05-04 08:41 31.97481 119.68331 33844 ft 486 kts 154°
2026-05-04 08:41 31.94823 119.70852 33042 ft 496 kts 145°
2026-05-04 08:41 31.92438 119.73836 32271 ft 504 kts 136°
2026-05-04 08:41 31.90411 119.77254 31539 ft 509 kts 130°
2026-05-04 08:42 31.88499 119.80698 30823 ft 507 kts 130°
2026-05-04 08:42 31.86546 119.84204 30100 ft 505 kts 131°
2026-05-04 08:42 31.84632 119.87600 29287 ft 502 kts 131°
2026-05-04 08:42 31.82725 119.90946 28492 ft 497 kts 130°
2026-05-04 08:43 31.80796 119.94299 27708 ft 493 kts 130°
2026-05-04 08:43 31.78873 119.97625 26949 ft 491 kts 130°
2026-05-04 08:43 31.76954 120.00937 26202 ft 488 kts 129°
2026-05-04 08:43 31.75053 120.04215 25481 ft 484 kts 129°
2026-05-04 08:44 31.73168 120.07466 24776 ft 478 kts 128°
2026-05-04 08:44 31.71307 120.10678 24085 ft 471 kts 128°
2026-05-04 08:46 31.58996 120.31934 18853 ft 432 kts 121°
2026-05-04 08:46 31.57843 120.35171 18131 ft 428 kts 109°
2026-05-04 08:46 31.56902 120.38443 17342 ft 418 kts 109°
2026-05-04 08:46 31.55989 120.41647 16575 ft 411 kts 108°
2026-05-04 08:47 31.55078 120.44812 15823 ft 406 kts 109°
2026-05-04 08:47 31.54171 120.47922 15090 ft 398 kts 109°
2026-05-04 08:47 31.53274 120.50959 14373 ft 390 kts 109°
2026-05-04 08:47 31.52386 120.53945 13653 ft 385 kts 109°
2026-05-04 08:48 31.51507 120.56887 12869 ft 380 kts 108°
2026-05-04 08:48 31.50639 120.59790 12284 ft 375 kts 108°
2026-05-04 08:48 31.49775 120.62670 11781 ft 375 kts 108°
2026-05-04 08:48 31.48923 120.65509 11349 ft 370 kts 108°
2026-05-04 08:49 31.48080 120.68319 10900 ft 361 kts 108°
2026-05-04 08:50 31.43580 120.83266 8709 ft 299 kts 108°
2026-05-04 08:50 31.42892 120.85549 8390 ft 296 kts 108°
2026-05-04 08:51 31.42210 120.87811 8054 ft 293 kts 108°
2026-05-04 08:51 31.41532 120.90054 7733 ft 291 kts 108°
2026-05-04 08:51 31.40919 120.92080 7444 ft 289 kts 108°
2026-05-04 08:51 31.40632 120.93028 7313 ft 288 kts 108°
2026-05-04 08:52 31.40214 120.94412 7104 ft 287 kts 108°
2026-05-04 08:52 31.39797 120.96684 6945 ft 286 kts 95°
2026-05-04 08:52 31.39631 120.99025 6849 ft 292 kts 92°
2026-05-04 08:52 31.39512 121.01379 6554 ft 284 kts 92°
2026-05-04 08:53 31.39396 121.03636 6266 ft 273 kts 92°
2026-05-04 08:54 31.38493 121.17763 4006 ft 233 kts 95°
2026-05-04 08:55 31.38366 121.19629 3779 ft 228 kts 95°
2026-05-04 08:55 31.38239 121.21465 3581 ft 231 kts 95°
2026-05-04 08:55 31.38198 121.23350 3371 ft 232 kts 90°
2026-05-04 08:55 31.38217 121.25238 3183 ft 232 kts 90°
2026-05-04 08:57 31.33445 121.32894 2360 ft 196 kts 178°
2026-05-04 09:01 31.19596 121.33640 19 ft 60 kts 177°
2026-05-04 09:01 31.19332 121.33678 20 ft 21 kts 160°
2026-05-04 09:01 31.19221 121.33743 19 ft 9 kts 147°
2026-05-04 09:01 31.19169 121.33782 19 ft 9 kts 148°
2026-05-04 09:02 31.19118 121.33820 18 ft 9 kts 147°
2026-05-04 09:02 31.19080 121.33868 18 ft 8 kts 99°
2026-05-04 09:02 31.19117 121.33917 18 ft 9 kts 11°
2026-05-04 09:02 31.19182 121.33915 18 ft 10 kts 357°
2026-05-04 09:03 31.19268 121.33911 18 ft 14 kts 357°
2026-05-04 09:03 31.19365 121.33905 19 ft 14 kts 357°
2026-05-04 09:03 31.19457 121.33900 18 ft 13 kts 357°
2026-05-04 09:03 31.19547 121.33896 18 ft 13 kts 357°
2026-05-04 09:04 31.19633 121.33890 18 ft 11 kts 358°
2026-05-04 09:04 31.19652 121.33890 18 ft 1 kts 359°
2026-05-04 09:04 31.19655 121.33890 18 ft 0 kts 358°
2026-05-04 09:07 31.19805 121.33902 18 ft 15 kts 17°
2026-05-04 09:08 31.19891 121.33972 19 ft 15 kts 59°
2026-05-04 09:08 31.19906 121.34057 18 ft 11 kts 88°
2026-05-04 09:08 31.19906 121.34105 18 ft 10 kts 96°
2026-05-04 09:15 31.19903 121.34181 18 ft 15 kts 86°
2026-05-04 09:15 31.19914 121.34285 20 ft 6 kts 86°
2026-05-04 09:17 31.19967 121.34079 18 ft 0 kts 177°